DW0156 Weather Reports


Display with metric or nautical units.
time (UTC)temp
F
wind
direction
speed
MPH
gust
MPH
rain 1hr
in
rain 24hr
in
rain mn
in
humidity
%
barometer
mb
20260509061043 62 263 2.0 9.0 0.00 0.00 0.00 82 1027.9
20260509060553 62 263 3.0 9.0 0.00 0.00 0.00 82 1027.9
20260509060058 62 263 3.0 9.0 0.00 0.00 0.00 81 1027.9
20260509054311 63 263 2.0 9.0 0.00 0.00 0.00 80 1028.0
20260509053754 63 263 3.0 9.0 0.00 0.00 0.00 79 1028.0
20260509052629 63 263 1.0 6.0 0.00 0.00 0.00 79 1028.0
20260509052121 63 263 2.0 6.0 0.00 0.00 0.00 79 1028.0
20260509051613 63 263 2.0 6.0 0.00 0.00 0.00 79 1028.0
20260509051055 63 263 2.0 5.0 0.00 0.00 0.00 79 1028.0
20260509045245 63 263 2.0 7.0 0.00 0.00 0.00 79 1028.0
20260509044734 63 263 3.0 8.0 0.00 0.00 0.00 79 1028.0
20260509044220 63 263 3.0 8.0 0.00 0.00 0.00 79 1028.0
20260509043729 63 263 3.0 8.0 0.00 0.00 0.00 80 1028.0
20260509043212 63 263 2.0 8.0 0.00 0.00 0.00 81 1028.0
20260509042712 63 263 2.0 7.0 0.00 0.00 0.00 81 1028.2
20260509042217 62 263 3.0 10.0 0.00 0.00 0.00 81 1028.2
20260509041713 62 263 3.0 10.0 0.00 0.00 0.00 82 1028.2
20260509041217 62 263 3.0 11.0 0.00 0.00 0.00 82 1028.2
20260509040717 62 263 3.0 11.0 0.00 0.00 0.00 83 1028.2
20260509040210 62 263 4.0 11.0 0.00 0.00 0.00 82 1028.2
20260509035654 62 263 4.0 11.0 0.00 0.00 0.00 82 1028.4
20260509035149 62 263 4.0 9.0 0.00 0.00 0.00 82 1028.4
20260509034657 62 263 4.0 9.0 0.00 0.00 0.00 82 1028.4
20260509033556 62 263 4.0 10.0 0.00 0.00 0.00 82 1028.6
20260509033046 62 263 4.0 10.0 0.00 0.00 0.00 82 1028.6
20260509032541 62 263 4.0 10.0 0.00 0.00 0.00 82 1028.8
20260509032041 62 263 4.0 10.0 0.00 0.00 0.00 81 1028.8
20260509031530 62 263 3.0 9.0 0.00 0.00 0.00 81 1028.8
20260509030417 62 263 3.0 6.0 0.00 0.00 0.00 81 1029.1
20260509025918 62 263 3.0 6.0 0.00 0.00 0.00 81 1029.1
20260509025418 62 263 3.0 9.0 0.00 0.00 0.00 80 1029.2
20260509024923 63 263 3.0 9.0 0.00 0.00 0.00 79 1029.2
20260509024423 63 263 3.0 9.0 0.00 0.00 0.00 78 1029.2
20260509023906 63 263 2.0 9.0 0.00 0.00 0.00 77 1029.5
20260509023410 63 263 1.0 5.0 0.00 0.00 0.00 78 1029.5
20260509022310 62 263 2.0 5.0 0.00 0.00 0.00 78 1029.7
20260509021820 62 263 2.0 5.0 0.00 0.00 0.00 78 1029.7
20260509021317 62 263 2.0 5.0 0.00 0.00 0.00 78 1030.0
20260509020146 62 263 2.0 5.0 0.00 0.00 0.00 78 1030.0
20260509015631 63 263 2.0 6.0 0.00 0.00 0.00 78 1030.1
20260509015110 63 263 2.0 6.0 0.00 0.00 0.00 78 1030.1
20260509014557 63 263 2.0 6.0 0.00 0.00 0.00 78 1030.1
20260509014041 63 263 2.0 6.0 0.00 0.00 0.00 78 1030.1
20260509013526 63 263 1.0 5.0 0.00 0.00 0.00 80 1030.1
20260509013027 63 263 1.0 5.0 0.00 0.00 0.00 80 1030.1
20260509012527 62 263 1.0 5.0 0.00 0.00 0.00 80 1030.1
20260509012032 62 263 2.0 5.0 0.00 0.00 0.00 81 1030.1
20260509011534 62 263 1.0 4.0 0.00 0.00 0.00 82 1030.1
20260509011015 61 263 1.0 4.0 0.00 0.01 0.00 83 1030.2
20260509010511 61 263 1.0 4.0 0.00 0.01 0.00 84 1030.2
20260509010012 61 263 1.0 5.0 0.00 0.01 0.00 85 1030.2
20260509004829 60 263 2.0 5.0 0.00 0.01 0.00 87 1030.2
20260509004325 60 263 2.0 5.0 0.00 0.01 0.00 88 1030.2
20260509003807 60 263 2.0 4.0 0.00 0.01 0.00 88 1030.2
20260509003311 60 263 1.0 4.0 0.00 0.01 0.00 88 1030.2
20260509002815 60 263 1.0 4.0 0.00 0.01 0.00 89 1030.4
20260509002318 60 263 0.0 3.0 0.00 0.01 0.00 89 1030.4
20260509001819 60 263 0.0 3.0 0.00 0.01 0.00 89 1030.4
20260509001305 60 263 0.0 2.0 0.00 0.01 0.00 90 1030.5
20260509000753 59 263 0.0 3.0 0.00 0.01 0.00 90 1030.5
20260508235643 60 263 0.0 0.0 0.00 0.01 0.00 91 1030.5
20260508234516 59 263 0.0 0.0 0.00 0.01 0.00 92 1030.5
20260508234015 58 263 0.0 0.0 0.00 0.01 0.00 93 1030.5
20260508233518 57 263 0.0 0.0 0.00 0.01 0.00 93 1030.5
20260508233003 57 263 0.0 0.0 0.00 0.01 0.00 93 1030.5
20260508232452 56 263 0.0 0.0 0.00 0.01 0.00 92 1030.4
20260508231340 56 263 0.0 0.0 0.00 0.01 0.00 93 1030.2
20260508230828 55 263 0.0 0.0 0.00 0.01 0.00 93 1030.2
20260508224440 53 263 0.0 0.0 0.00 0.01 0.00 92 1030.2
20260508223259 52 263 0.0 0.0 0.00 0.01 0.00 92 1030.1
20260508222750 52 263 0.0 0.0 0.00 0.01 0.00 92 1030.1
20260508222234 52 263 0.0 0.0 0.00 0.01 0.00 92 1030.1
20260508221720 52 263 0.0 0.0 0.00 0.01 0.00 92 1030.1
20260508221226 52 263 0.0 0.0 0.00 0.01 0.00 92 1030.0
20260508220114 51 263 0.0 0.0 0.00 0.00 0.00 91 1030.0
20260508215621 51 263 0.0 0.0 0.00 0.00 0.00 91 1029.9
20260508215102 51 263 0.0 0.0 0.00 0.00 0.00 91 1029.9
20260508213941 51 263 0.0 0.0 0.00 0.00 0.00 91 1029.6
20260508213429 51 263 0.0 0.0 0.00 0.00 0.00 91 1029.6
20260508212923 52 263 0.0 0.0 0.00 0.00 0.00 91 1029.6
20260508212410 52 263 0.0 0.0 0.00 0.00 0.00 91 1029.6
20260508211854 52 263 0.0 0.0 0.00 0.00 0.00 91 1029.6
20260508211349 52 263 0.0 0.0 0.00 0.00 0.00 91 1029.6
20260508210839 52 263 0.0 0.0 0.00 0.00 0.00 91 1029.6
20260508210322 52 263 0.0 0.0 0.00 0.00 0.00 91 1029.6
20260508205158 52 263 0.0 0.0 0.00 0.00 0.00 91 1029.5
20260508204643 53 263 0.0 0.0 0.00 0.00 0.00 90 1029.5
20260508204139 53 263 0.0 0.0 0.00 0.00 0.00 91 1029.4
20260508203633 53 263 0.0 0.0 0.00 0.00 0.00 91 1029.4
20260508203114 53 263 0.0 0.0 0.00 0.00 0.00 91 1029.4
20260508201938 54 263 0.0 0.0 0.00 0.00 0.00 90 1029.2
20260508201429 54 263 0.0 0.0 0.00 0.00 0.00 91 1029.2
20260508200914 54 263 0.0 0.0 0.00 0.00 0.00 91 1029.1
20260508200359 54 263 0.0 0.0 0.00 0.00 0.00 91 1029.1
20260508195908 54 263 0.0 0.0 0.00 0.00 0.00 91 1029.1
20260508195412 54 263 0.0 0.0 0.00 0.00 0.00 91 1029.0
20260508194900 55 263 0.0 0.0 0.00 0.00 0.00 91 1029.0
20260508194405 55 263 0.0 0.0 0.00 0.00 0.00 91 1029.0
20260508193845 54 263 0.0 4.0 0.00 0.00 0.00 91 1029.0
20260508193340 54 263 0.0 4.0 0.00 0.00 0.00 91 1029.0
20260508192834 54 263 0.0 0.0 0.00 0.00 0.00 91 1028.9
20260508192328 54 263 0.0 0.0 0.00 0.00 0.00 91 1028.9
20260508191813 54 263 0.0 0.0 0.00 0.00 0.00 91 1028.9
20260508191255 54 263 0.0 0.0 0.00 0.00 0.00 91 1028.9
20260508190753 54 263 0.0 0.0 0.00 0.00 0.00 91 1028.9
20260508185626 54 263 0.0 0.0 0.00 0.00 0.00 91 1028.8
20260508185130 54 263 0.0 0.0 0.00 0.00 0.00 91 1028.8
20260508184622 54 263 0.0 0.0 0.00 0.00 0.00 91 1028.8
20260508184131 54 263 0.0 0.0 0.00 0.00 0.00 91 1028.9
20260508183626 54 263 0.0 0.0 0.00 0.00 0.00 91 1028.9
20260508183129 54 263 0.0 0.0 0.00 0.00 0.00 91 1028.9
20260508182006 54 263 0.0 0.0 0.00 0.00 0.00 90 1029.0
20260508181506 54 263 0.0 0.0 0.00 0.00 0.00 90 1029.0
20260508181003 54 263 0.0 0.0 0.00 0.00 0.00 90 1029.0
20260508180447 54 263 0.0 0.0 0.00 0.00 0.00 90 1029.0
20260508175948 54 263 0.0 0.0 0.00 0.00 0.00 90 1029.0
20260508175443 54 263 0.0 0.0 0.00 0.00 0.00 90 1029.1
20260508174947 54 263 0.0 0.0 0.00 0.00 0.00 90 1029.1
20260508173805 54 263 0.0 0.0 0.00 0.00 0.00 90 1029.3
20260508172635 54 263 0.0 0.0 0.00 0.00 0.00 90 1029.2
20260508172145 54 263 0.0 0.0 0.00 0.00 0.00 90 1029.2
20260508171649 54 263 0.0 0.0 0.00 0.00 0.00 90 1029.2
20260508170519 54 263 0.0 0.0 0.00 0.00 0.00 90 1029.1
20260508165347 54 263 0.0 0.0 0.00 0.00 0.00 90 1029.1
20260508164838 54 263 1.0 3.0 0.00 0.00 0.00 90 1029.1
20260508164342 54 263 1.0 3.0 0.00 0.00 0.00 90 1029.0
20260508163826 54 263 1.0 3.0 0.00 0.00 0.00 90 1029.0
20260508163328 53 263 1.0 3.0 0.00 0.00 0.00 90 1029.0
20260508162142 53 263 1.0 2.0 0.00 0.00 0.00 89 1029.1
20260508160353 53 263 0.0 1.0 0.00 0.00 0.00 89 1029.2
20260508155227 53 263 0.0 2.0 0.00 0.00 0.00 89 1029.2
20260508154720 53 263 0.0 2.0 0.00 0.00 0.00 89 1029.2
20260508154230 53 263 0.0 0.0 0.00 0.00 0.00 89 1029.3
20260508153714 53 263 0.0 0.0 0.00 0.00 0.00 89 1029.3
20260508153202 53 263 0.0 0.0 0.00 0.00 0.00 89 1029.3
20260508152653 53 263 0.0 0.0 0.00 0.00 0.00 88 1029.5
20260508152153 53 263 0.0 0.0 0.00 0.00 0.00 88 1029.5
20260508151638 53 263 0.0 0.0 0.00 0.00 0.00 88 1029.5
20260508151146 53 263 0.0 0.0 0.00 0.00 0.00 88 1029.5
20260508150648 53 263 0.0 0.0 0.00 0.00 0.00 88 1029.5
20260508145530 54 263 0.0 0.0 0.00 0.00 0.00 88 1029.5
20260508145031 54 263 0.0 0.0 0.00 0.00 0.00 88 1029.5
20260508144531 54 263 0.0 0.0 0.00 0.00 0.00 88 1029.5
20260508144027 54 263 0.0 0.0 0.00 0.00 0.00 87 1029.6
20260508143526 54 263 0.0 0.0 0.00 0.00 0.00 87 1029.6
20260508142401 54 263 0.0 0.0 0.00 0.00 0.00 87 1029.6
20260508141854 54 263 0.0 0.0 0.00 0.00 0.00 87 1029.6
20260508141400 54 263 0.0 0.0 0.00 0.00 0.00 87 1029.6
20260508135606 54 263 0.0 0.0 0.00 0.00 0.00 87 1029.7
20260508135114 54 263 0.0 2.0 0.00 0.00 0.00 87 1029.7
20260508134554 54 263 0.0 2.0 0.00 0.00 0.00 87 1029.7
20260508134100 54 263 0.0 2.0 0.00 0.00 0.00 86 1030.0
20260508133549 55 263 0.0 0.0 0.00 0.00 0.00 86 1030.0
20260508133036 55 263 0.0 0.0 0.00 0.00 0.00 86 1030.0
20260508132528 55 263 0.0 0.0 0.00 0.00 0.00 86 1030.1
20260508132035 55 263 0.0 0.0 0.00 0.00 0.00 86 1030.1
20260508130908 55 263 0.0 3.0 0.00 0.00 0.00 86 1030.1
20260508130403 55 263 0.0 3.0 0.00 0.00 0.00 86 1030.1
20260508125854 55 263 0.0 2.0 0.00 0.00 0.00 85 1030.1
20260508125357 55 263 0.0 1.0 0.00 0.00 0.00 85 1030.1
20260508124224 55 263 0.0 3.0 0.00 0.00 0.00 85 1030.1
20260508123725 55 263 1.0 3.0 0.00 0.00 0.00 85 1030.1
20260508123228 56 263 1.0 3.0 0.00 0.00 0.00 85 1030.1
20260508122728 56 263 0.0 3.0 0.00 0.00 0.00 85 1030.1
20260508122214 56 263 0.0 2.0 0.00 0.00 0.00 84 1030.1
20260508121716 56 263 1.0 2.0 0.00 0.00 0.00 84 1030.1
20260508121216 56 263 1.0 2.0 0.00 0.00 0.00 84 1030.1
20260508120712 56 263 0.0 2.0 0.00 0.00 0.00 83 1030.1
20260508114934 56 263 0.0 1.0 0.00 0.00 0.00 83 1030.1
20260508114440 57 263 0.0 0.0 0.00 0.00 0.00 83 1030.1
20260508113926 57 263 0.0 2.0 0.00 0.00 0.00 82 1030.1
20260508112807 57 263 0.0 2.0 0.00 0.00 0.00 81 1030.1
20260508112253 57 263 0.0 4.0 0.00 0.00 0.00 81 1030.1
20260508111736 57 263 0.0 4.0 0.00 0.00 0.00 81 1030.1
20260508110604 58 263 2.0 5.0 0.00 0.00 0.00 81 1030.1
20260508110112 58 263 2.0 5.0 0.00 0.00 0.00 81 1030.1
20260508105608 58 263 2.0 5.0 0.00 0.00 0.00 80 1030.1
20260508105049 58 263 2.0 4.0 0.00 0.00 0.00 80 1030.1
20260508104531 58 263 2.0 4.0 0.00 0.00 0.00 80 1030.1
20260508104011 58 263 1.0 5.0 0.00 0.00 0.00 79 1030.1
20260508103501 58 263 2.0 5.0 0.00 0.00 0.00 79 1030.1
20260508102949 59 263 3.0 5.0 0.00 0.00 0.00 79 1030.1
20260508102457 59 263 3.0 5.0 0.00 0.00 0.00 79 1030.1
20260508101951 59 263 2.0 8.0 0.00 0.00 0.00 78 1030.1
20260508101438 59 263 2.0 8.0 0.00 0.00 0.00 78 1030.1
20260508100934 59 263 2.0 8.0 0.00 0.00 0.00 78 1030.0
20260508095823 59 263 2.0 6.0 0.00 0.00 0.00 78 1030.0
20260508095325 59 263 2.0 5.0 0.00 0.00 0.00 78 1030.0
20260508094833 59 263 1.0 5.0 0.00 0.00 0.00 77 1030.0
20260508094332 59 263 1.0 4.0 0.00 0.00 0.00 77 1029.9
20260508093817 59 263 0.0 4.0 0.00 0.00 0.00 77 1029.9
20260508093301 59 263 0.0 4.0 0.00 0.00 0.00 77 1029.9
20260508092752 59 263 0.0 2.0 0.00 0.00 0.00 77 1029.6
20260508091610 59 263 0.0 3.0 0.00 0.00 0.00 77 1029.6
20260508091059 60 263 0.0 3.0 0.00 0.00 0.00 78 1029.6
20260508090601 60 263 1.0 6.0 0.00 0.00 0.00 78 1029.6
20260508090059 60 263 1.0 6.0 0.00 0.00 0.00 78 1029.6
20260508084949 60 263 1.0 4.0 0.00 0.00 0.00 78 1029.6
20260508084437 60 263 1.0 4.0 0.00 0.00 0.00 78 1029.6
20260508083319 60 263 1.0 5.0 0.00 0.00 0.00 79 1029.5
20260508082811 60 263 1.0 5.0 0.00 0.00 0.00 79 1029.5
20260508082257 60 263 1.0 8.0 0.00 0.00 0.00 79 1029.5
20260508081738 60 263 2.0 8.0 0.00 0.00 0.00 79 1029.5
20260508081223 60 263 2.0 8.0 0.00 0.00 0.00 79 1029.2
20260508075426 61 263 3.0 9.0 0.00 0.00 0.00 78 1029.1
20260508074919 61 263 3.0 11.0 0.00 0.00 0.00 77 1029.1
20260508074426 61 263 4.0 11.0 0.00 0.00 0.00 77 1029.1
20260508073908 62 263 4.0 11.0 0.00 0.00 0.00 76 1029.0
20260508072737 62 263 3.0 10.0 0.00 0.00 0.00 77 1029.0
20260508072237 62 263 4.0 13.0 0.00 0.00 0.00 77 1029.0
20260508071728 62 263 5.0 13.0 0.00 0.00 0.00 77 1029.0
20260508071215 62 263 5.0 13.0 0.00 0.00 0.00 76 1029.0
20260508070056 62 263 4.0 10.0 0.00 0.00 0.00 78 1029.0
20260508065545 62 263 5.0 11.0 0.00 0.00 0.00 78 1029.1
20260508064408 62 263 4.0 11.0 0.00 0.00 0.00 76 1029.1
20260508063902 62 263 4.0 10.0 0.00 0.00 0.00 74 1029.0
20260508063355 63 263 3.0 10.0 0.00 0.00 0.00 74 1029.0
20260508062842 63 263 3.0 9.0 0.00 0.00 0.00 74 1029.0
20260508062324 63 263 4.0 14.0 0.00 0.00 0.00 76 1029.0
20260508061819 63 263 4.0 14.0 0.00 0.00 0.00 76 1029.0